Live-Position
3D-Globus wird geladen...
Über Starlink 5839
Group: 3 satellites
Beschreibung wird geladen...
Nächste Überflüge
Passes for default location (London). Set your location on the main map for personalized predictions.
Höhenverlauf
Loading altitude history...
No altitude history available
Zweizeiliger Elementsatz
1 57051U 23088D 26104.49423845 .00000219 00000-0 17859-4 0 9997
2 57051 43.0022 267.9922 0001085 265.7450 94.3277 15.26741632155810
Epoch: 14. Apr. 2026 •
Age: 7 hours
Aktueller Status
Höhe 484.8 km
Geschwindigkeit 7.63 km/s
Subsatellitenpunkt 7.45°N,
47.82°W
Startdatum 22. Juni 2023
Alter 2.8 years
Typ internet
Startgruppe
Falcon 9 •
Group 5-7 •
45 satellites
Starlink 5850
57049
Starlink 5845 57050
Starlink 5860 57052
Starlink 5865 57053
Starlink 5881 57054
Starlink 6237 57055
Starlink 6353 57056
Starlink 6223 57057
Starlink 6217 57058
Starlink 6211 57059
Starlink 6227 57060
Starlink 5869 57061
Starlink 5536 57062
Starlink 5832 57063
Starlink 5822 57064
Starlink 5830 57065
Starlink 5827 57066
Starlink 5824 57067
Starlink 5844 57068
Starlink 5821 57069
...and 24 more
Technische Details
Klassifizierung Payload
Masse 305.00 kg
Trockenmasse 290.00 kg
Gesamtmasse 305.00 kg
Länge 0.20 m
Durchmesser 2.80 m
Spannweite 9.00 m
Form Box + pan
Hersteller SPXS
Bus-Typ Starlink
Phasenstatus In Orbit
Besitzer/Staat SPXS/US
Most Searched
Loading...